Year,Month,Day,Hour,Minute,Value (Times are PST for temperature in C)
2016,08,19,00,00,18.50
2016,08,19,00,01,18.50
2016,08,19,00,02,18.50
2016,08,19,00,03,18.60
2016,08,19,00,04,18.70
2016,08,19,00,05,18.70
2016,08,19,00,06,18.80
2016,08,19,00,07,18.80
2016,08,19,00,08,18.80
2016,08,19,00,09,18.90
2016,08,19,00,10,18.90
2016,08,19,00,11,18.90
2016,08,19,00,12,18.90
2016,08,19,00,13,19.00
2016,08,19,00,14,19.10
2016,08,19,00,15,19.10
2016,08,19,00,16,19.10
2016,08,19,00,17,19.20
2016,08,19,00,18,19.30
2016,08,19,00,19,19.40
2016,08,19,00,20,19.60
2016,08,19,00,21,19.70
2016,08,19,00,22,19.80
2016,08,19,00,23,20.10
2016,08,19,00,24,20.40
2016,08,19,00,25,20.70
2016,08,19,00,26,21.00
2016,08,19,00,27,21.30
2016,08,19,00,28,21.60
2016,08,19,00,29,21.80
2016,08,19,00,30,22.10
2016,08,19,00,31,22.30
2016,08,19,00,32,22.60
2016,08,19,00,33,22.70
2016,08,19,00,34,22.90
2016,08,19,00,35,22.90
2016,08,19,00,36,23.00
2016,08,19,00,37,23.20
2016,08,19,00,38,23.30
2016,08,19,00,39,23.30
2016,08,19,00,40,23.40
2016,08,19,00,41,23.40
2016,08,19,00,42,23.60
2016,08,19,00,43,23.60
2016,08,19,00,44,23.60
2016,08,19,00,45,23.60
2016,08,19,00,46,23.60
2016,08,19,00,47,23.60
2016,08,19,00,48,23.60
2016,08,19,00,49,23.70
2016,08,19,00,50,23.70
2016,08,19,00,51,23.70
2016,08,19,00,52,23.70
2016,08,19,00,53,23.80
2016,08,19,00,54,23.80
2016,08,19,00,55,23.90
2016,08,19,00,56,23.90
2016,08,19,00,57,24.00
2016,08,19,00,58,24.10
2016,08,19,00,59,24.10
2016,08,19,01,00,24.10
2016,08,19,01,01,24.10
2016,08,19,01,02,24.10
2016,08,19,01,03,24.20
2016,08,19,01,04,24.20
2016,08,19,01,05,24.30
2016,08,19,01,06,24.30
2016,08,19,01,07,24.30
2016,08,19,01,08,24.40
2016,08,19,01,09,24.40
2016,08,19,01,10,24.50
2016,08,19,01,11,24.50
2016,08,19,01,12,24.50
2016,08,19,01,13,24.50
2016,08,19,01,14,24.50
2016,08,19,01,15,24.60
2016,08,19,01,16,24.60
2016,08,19,01,17,24.60
2016,08,19,01,18,24.60
2016,08,19,01,19,24.60
2016,08,19,01,20,24.60
2016,08,19,01,21,24.60
2016,08,19,01,22,24.60
2016,08,19,01,23,24.60
2016,08,19,01,24,24.60
2016,08,19,01,25,24.70
2016,08,19,01,26,24.70
2016,08,19,01,27,24.70
2016,08,19,01,28,24.70
2016,08,19,01,29,24.70
2016,08,19,01,30,24.70
2016,08,19,01,31,24.70
2016,08,19,01,32,24.70
2016,08,19,01,33,24.80
2016,08,19,01,34,24.80
2016,08,19,01,35,24.80
2016,08,19,01,36,24.80
2016,08,19,01,37,24.90
2016,08,19,01,38,24.90
2016,08,19,01,39,24.90
2016,08,19,01,40,24.90
2016,08,19,01,41,24.80
2016,08,19,01,42,24.60
2016,08,19,01,43,24.40
2016,08,19,01,44,24.20
2016,08,19,01,45,24.00
2016,08,19,01,46,23.80
2016,08,19,01,47,23.50
2016,08,19,01,48,23.30
2016,08,19,01,49,23.00
2016,08,19,01,50,22.80
2016,08,19,01,51,22.60
2016,08,19,01,52,22.40
2016,08,19,01,53,22.20
2016,08,19,01,54,22.00
2016,08,19,01,55,21.90
2016,08,19,01,56,21.70
2016,08,19,01,57,21.60
2016,08,19,01,58,21.40
2016,08,19,01,59,21.30
2016,08,19,02,00,21.30
2016,08,19,02,01,21.20
2016,08,19,02,02,21.20
2016,08,19,02,03,21.10
2016,08,19,02,04,21.00
2016,08,19,02,05,20.80
2016,08,19,02,06,20.70
2016,08,19,02,07,20.50
2016,08,19,02,08,20.40
2016,08,19,02,09,20.20
2016,08,19,02,10,20.10
2016,08,19,02,11,19.90
2016,08,19,02,12,19.80
2016,08,19,02,13,19.70
2016,08,19,02,14,19.60
2016,08,19,02,15,19.50
2016,08,19,02,16,19.40
2016,08,19,02,17,19.20
2016,08,19,02,18,19.10
2016,08,19,02,19,19.00
2016,08,19,02,20,18.90
2016,08,19,02,21,18.90
2016,08,19,02,22,18.80
2016,08,19,02,23,18.70
2016,08,19,02,24,18.70
2016,08,19,02,25,18.70
2016,08,19,02,26,18.60
2016,08,19,02,27,18.60
2016,08,19,02,28,18.70
2016,08,19,02,29,18.70
2016,08,19,02,30,18.80
2016,08,19,02,31,18.80
2016,08,19,02,32,18.90
2016,08,19,02,33,19.10
2016,08,19,02,34,19.30
2016,08,19,02,35,19.50
2016,08,19,02,36,19.80
2016,08,19,02,37,20.00
2016,08,19,02,38,20.20
2016,08,19,02,39,20.50
2016,08,19,02,40,20.80
2016,08,19,02,41,21.00
2016,08,19,02,42,21.40
2016,08,19,02,43,21.60
2016,08,19,02,44,21.90
2016,08,19,02,45,22.10
2016,08,19,02,46,22.30
2016,08,19,02,47,22.60
2016,08,19,02,48,22.80
2016,08,19,02,49,23.00
2016,08,19,02,50,23.20
2016,08,19,02,51,23.30
2016,08,19,02,52,23.40
2016,08,19,02,53,23.50
2016,08,19,02,54,23.60
2016,08,19,02,55,23.60
2016,08,19,02,56,23.30
2016,08,19,02,57,23.10
2016,08,19,02,58,22.90
2016,08,19,02,59,22.60
2016,08,19,03,00,22.40
2016,08,19,03,01,22.20
2016,08,19,03,02,22.10
2016,08,19,03,03,21.90
2016,08,19,03,04,21.80
2016,08,19,03,05,21.60
2016,08,19,03,06,21.50
2016,08,19,03,07,21.40
2016,08,19,03,08,21.30
2016,08,19,03,09,21.20
2016,08,19,03,10,21.20
2016,08,19,03,11,21.20
2016,08,19,03,12,21.30
2016,08,19,03,13,21.60
2016,08,19,03,14,21.70
2016,08,19,03,15,21.70
2016,08,19,03,16,21.70
2016,08,19,03,17,21.70
2016,08,19,03,18,21.70
2016,08,19,03,19,21.70
2016,08,19,03,20,21.60
2016,08,19,03,21,21.60
2016,08,19,03,22,21.70
2016,08,19,03,23,21.90
2016,08,19,03,24,22.00
2016,08,19,03,25,22.20
2016,08,19,03,26,22.40
2016,08,19,03,27,22.60
2016,08,19,03,28,22.80
2016,08,19,03,29,22.90
2016,08,19,03,30,23.00
2016,08,19,03,31,23.20
2016,08,19,03,32,23.30
2016,08,19,03,33,23.30
2016,08,19,03,34,23.40
2016,08,19,03,35,23.40
2016,08,19,03,36,23.50
2016,08,19,03,37,23.60
2016,08,19,03,38,23.60
2016,08,19,03,39,23.70
2016,08,19,03,40,23.70
2016,08,19,03,41,23.70
2016,08,19,03,42,23.70
2016,08,19,03,43,23.70
2016,08,19,03,44,23.70
2016,08,19,03,45,23.70
2016,08,19,03,46,23.70
2016,08,19,03,47,23.70
2016,08,19,03,48,23.70
2016,08,19,03,49,23.70
2016,08,19,03,50,23.70
2016,08,19,03,51,23.70
2016,08,19,03,52,23.70
2016,08,19,03,53,23.70
2016,08,19,03,54,23.70
2016,08,19,03,55,23.70
2016,08,19,03,56,23.70
2016,08,19,03,57,23.70
2016,08,19,03,58,23.70
2016,08,19,03,59,23.70
2016,08,19,04,00,23.70
2016,08,19,04,01,23.70
2016,08,19,04,02,23.70
2016,08,19,04,03,23.60
2016,08,19,04,04,23.60
2016,08,19,04,05,23.60
2016,08,19,04,06,23.60
2016,08,19,04,07,23.50
2016,08,19,04,08,23.40
2016,08,19,04,09,23.40
2016,08,19,04,10,23.40
2016,08,19,04,11,23.40
2016,08,19,04,12,23.30
2016,08,19,04,13,23.30
2016,08,19,04,14,23.30
2016,08,19,04,15,23.30
2016,08,19,04,16,23.30
2016,08,19,04,17,23.30
2016,08,19,04,18,23.20
2016,08,19,04,19,23.10
2016,08,19,04,20,23.10
2016,08,19,04,21,23.00
2016,08,19,04,22,22.90
2016,08,19,04,23,22.90
2016,08,19,04,24,22.80
2016,08,19,04,25,22.70
2016,08,19,04,26,22.60
2016,08,19,04,27,22.60
2016,08,19,04,28,22.50
2016,08,19,04,29,22.40
2016,08,19,04,30,22.40
2016,08,19,04,31,22.30
2016,08,19,04,32,22.30
2016,08,19,04,33,22.30
2016,08,19,04,34,22.20
2016,08,19,04,35,22.20
2016,08,19,04,36,22.20
2016,08,19,04,37,22.10
2016,08,19,04,38,22.10
2016,08,19,04,39,22.10
2016,08,19,04,40,22.00
2016,08,19,04,41,22.00
2016,08,19,04,42,22.00
2016,08,19,04,43,22.00
2016,08,19,04,44,21.90
2016,08,19,04,45,21.90
2016,08,19,04,46,21.90
2016,08,19,04,47,21.80
2016,08,19,04,48,21.80
2016,08,19,04,49,21.80
2016,08,19,04,50,21.70
2016,08,19,04,51,21.70
2016,08,19,04,52,21.70
2016,08,19,04,53,21.60
2016,08,19,04,54,21.60
2016,08,19,04,55,21.60
2016,08,19,04,56,21.60
2016,08,19,04,57,21.60
2016,08,19,04,58,21.60
2016,08,19,04,59,21.60
2016,08,19,05,00,21.50
2016,08,19,05,01,21.40
2016,08,19,05,02,21.40
2016,08,19,05,03,21.40
2016,08,19,05,04,21.40
2016,08,19,05,05,21.30
2016,08,19,05,06,21.30
2016,08,19,05,07,21.30
2016,08,19,05,08,21.30
2016,08,19,05,09,21.30
2016,08,19,05,10,21.30
2016,08,19,05,11,21.30
2016,08,19,05,12,21.30
2016,08,19,05,13,21.30
2016,08,19,05,14,21.30
2016,08,19,05,15,21.20
2016,08,19,05,16,21.20
2016,08,19,05,17,21.20
2016,08,19,05,18,21.10
2016,08,19,05,19,21.10
2016,08,19,05,20,21.10
2016,08,19,05,21,21.00
2016,08,19,05,22,21.00
2016,08,19,05,23,21.00
2016,08,19,05,24,21.00
2016,08,19,05,25,21.00
2016,08,19,05,26,20.90
2016,08,19,05,27,20.90
2016,08,19,05,28,20.90
2016,08,19,05,29,20.80
2016,08,19,05,30,20.80
2016,08,19,05,31,20.80
2016,08,19,05,32,20.80
2016,08,19,05,33,20.80
2016,08,19,05,34,20.80
2016,08,19,05,35,20.80
2016,08,19,05,36,20.80
2016,08,19,05,37,20.80
2016,08,19,05,38,20.80
2016,08,19,05,39,20.80
2016,08,19,05,40,20.80
2016,08,19,05,41,20.80
2016,08,19,05,42,20.80
2016,08,19,05,43,20.80
2016,08,19,05,44,20.80
2016,08,19,05,45,20.80
2016,08,19,05,46,20.70
2016,08,19,05,47,20.70
2016,08,19,05,48,20.70
2016,08,19,05,49,20.70
2016,08,19,05,50,20.70
2016,08,19,05,51,20.70
2016,08,19,05,52,20.60
2016,08,19,05,53,20.60
2016,08,19,05,54,20.60
2016,08,19,05,55,20.60
2016,08,19,05,56,20.60
2016,08,19,05,57,20.60
2016,08,19,05,58,20.60
2016,08,19,05,59,20.50
2016,08,19,06,00,20.50
2016,08,19,06,01,20.50
2016,08,19,06,02,20.50
2016,08,19,06,03,20.50
2016,08,19,06,04,20.50
2016,08,19,06,05,20.50
2016,08,19,06,06,20.40
2016,08,19,06,07,20.40
2016,08,19,06,08,20.40
2016,08,19,06,09,20.40
2016,08,19,06,10,20.50
2016,08,19,06,11,20.50
2016,08,19,06,12,20.50
2016,08,19,06,13,20.50
2016,08,19,06,14,20.50
2016,08,19,06,15,20.50
2016,08,19,06,16,20.60
2016,08,19,06,17,20.60
2016,08,19,06,18,20.70
2016,08,19,06,19,20.70
2016,08,19,06,20,20.70
2016,08,19,06,21,20.70
2016,08,19,06,22,20.70
2016,08,19,06,23,20.80
2016,08,19,06,24,20.80
2016,08,19,06,25,20.80
2016,08,19,06,26,20.90
2016,08,19,06,27,20.90
2016,08,19,06,28,20.90
2016,08,19,06,29,20.90
2016,08,19,06,30,21.00
2016,08,19,06,31,21.00
2016,08,19,06,32,21.00
2016,08,19,06,33,21.00
2016,08,19,06,34,20.90
2016,08,19,06,35,20.90
2016,08,19,06,36,20.90
2016,08,19,06,37,20.80
2016,08,19,06,38,20.80
2016,08,19,06,39,20.70
2016,08,19,06,40,20.60
2016,08,19,06,41,20.50
2016,08,19,06,42,20.40
2016,08,19,06,43,20.30
2016,08,19,06,44,20.20
2016,08,19,06,45,20.20
2016,08,19,06,46,20.10
2016,08,19,06,47,19.90
2016,08,19,06,48,19.90
2016,08,19,06,49,19.80
2016,08,19,06,50,19.70
2016,08,19,06,51,19.70
2016,08,19,06,52,19.60
2016,08,19,06,53,19.60
2016,08,19,06,54,19.50
2016,08,19,06,55,19.40
2016,08,19,06,56,19.40
2016,08,19,06,57,19.30
2016,08,19,06,58,19.30
2016,08,19,06,59,19.20
2016,08,19,07,00,19.20
2016,08,19,07,01,19.10
2016,08,19,07,02,19.10
2016,08,19,07,03,19.10
2016,08,19,07,04,19.00
2016,08,19,07,05,18.90
2016,08,19,07,06,18.90
2016,08,19,07,07,18.90
2016,08,19,07,08,18.80
2016,08,19,07,09,18.80
2016,08,19,07,10,18.70
2016,08,19,07,11,18.70
2016,08,19,07,12,18.60
2016,08,19,07,13,18.60
2016,08,19,07,14,18.60
2016,08,19,07,15,18.60
2016,08,19,07,16,18.60
2016,08,19,07,17,18.60
2016,08,19,07,18,18.60
2016,08,19,07,19,18.60
2016,08,19,07,20,18.60
2016,08,19,07,21,18.70
2016,08,19,07,22,18.70
2016,08,19,07,23,18.70
2016,08,19,07,24,18.70
2016,08,19,07,25,18.70
2016,08,19,07,26,18.70
2016,08,19,07,27,18.80
2016,08,19,07,28,18.80
2016,08,19,07,29,18.80
2016,08,19,07,30,18.80
2016,08,19,07,31,18.80
2016,08,19,07,32,18.90
2016,08,19,07,33,18.90
2016,08,19,07,34,18.90
2016,08,19,07,35,19.00
2016,08,19,07,36,19.10
2016,08,19,07,37,19.30
2016,08,19,07,38,19.60
2016,08,19,07,39,19.70
2016,08,19,07,40,19.90
2016,08,19,07,41,20.00
2016,08,19,07,42,20.20
2016,08,19,07,43,20.40
2016,08,19,07,44,20.50
2016,08,19,07,45,20.70
2016,08,19,07,46,20.90
2016,08,19,07,47,21.10
2016,08,19,07,48,21.30
2016,08,19,07,49,21.50
2016,08,19,07,50,21.60
2016,08,19,07,51,21.80
2016,08,19,07,52,21.90
2016,08,19,07,53,22.00
2016,08,19,07,54,22.10
2016,08,19,07,55,22.20
2016,08,19,07,56,22.20
2016,08,19,07,57,22.20
2016,08,19,07,58,22.10
2016,08,19,07,59,22.10
2016,08,19,08,00,22.00
2016,08,19,08,01,22.00
2016,08,19,08,02,22.10
2016,08,19,08,03,22.10
2016,08,19,08,04,22.10
2016,08,19,08,05,22.20
2016,08,19,08,06,22.20
2016,08,19,08,07,22.30
2016,08,19,08,08,22.40
2016,08,19,08,09,22.60
2016,08,19,08,10,22.70
2016,08,19,08,11,22.90
2016,08,19,08,12,22.90
2016,08,19,08,13,23.10
2016,08,19,08,14,23.20
2016,08,19,08,15,23.30
2016,08,19,08,16,23.30
2016,08,19,08,17,23.50
2016,08,19,08,18,23.60
2016,08,19,08,19,23.60
2016,08,19,08,20,23.70
2016,08,19,08,21,23.70
2016,08,19,08,22,23.80
2016,08,19,08,23,23.80
2016,08,19,08,24,23.90
2016,08,19,08,25,23.90
2016,08,19,08,26,24.00
2016,08,19,08,27,24.10
2016,08,19,08,28,24.10
2016,08,19,08,29,24.10
2016,08,19,08,30,24.20
2016,08,19,08,31,24.20
2016,08,19,08,32,24.20
2016,08,19,08,33,24.30
2016,08,19,08,34,24.30
2016,08,19,08,35,24.30
2016,08,19,08,36,24.40
2016,08,19,08,37,24.40
2016,08,19,08,38,24.40
2016,08,19,08,39,24.50
2016,08,19,08,40,24.50
2016,08,19,08,41,24.50
2016,08,19,08,42,24.50
2016,08,19,08,43,24.50
2016,08,19,08,44,24.50
2016,08,19,08,45,24.60
2016,08,19,08,46,24.60
2016,08,19,08,47,24.70
2016,08,19,08,48,24.70
2016,08,19,08,49,24.70
2016,08,19,08,50,24.70
2016,08,19,08,51,24.70
2016,08,19,08,52,24.70
2016,08,19,08,53,24.70
2016,08,19,08,54,24.80
2016,08,19,08,55,24.80
2016,08,19,08,56,24.80
2016,08,19,08,57,24.80
2016,08,19,08,58,24.80
2016,08,19,08,59,24.90
2016,08,19,09,00,24.90
2016,08,19,09,01,24.90
2016,08,19,09,02,24.90
2016,08,19,09,03,25.00
2016,08,19,09,04,25.00
2016,08,19,09,05,25.00
2016,08,19,09,06,25.10
2016,08,19,09,07,25.10
2016,08,19,09,08,25.20
2016,08,19,09,09,25.20
2016,08,19,09,10,25.20
2016,08,19,09,11,25.30
2016,08,19,09,12,25.30
2016,08,19,09,13,25.40
2016,08,19,09,14,25.50
2016,08,19,09,15,25.50
2016,08,19,09,16,25.50
2016,08,19,09,17,25.60
2016,08,19,09,18,25.60
2016,08,19,09,19,25.60
2016,08,19,09,20,25.70
2016,08,19,09,21,25.70
2016,08,19,09,22,25.60
2016,08,19,09,23,25.70
2016,08,19,09,24,25.70
2016,08,19,09,25,25.70
2016,08,19,09,26,25.80
2016,08,19,09,27,25.90
2016,08,19,09,28,25.90
2016,08,19,09,29,25.90
2016,08,19,09,30,26.00
2016,08,19,09,31,26.00
2016,08,19,09,32,26.10
2016,08,19,09,33,26.10
2016,08,19,09,34,26.10
2016,08,19,09,35,26.20
2016,08,19,09,36,26.20
2016,08,19,09,37,26.20
2016,08,19,09,38,26.30
2016,08,19,09,39,26.30
2016,08,19,09,40,26.20
2016,08,19,09,41,26.20
2016,08,19,09,42,26.20
2016,08,19,09,43,26.20
2016,08,19,09,44,26.30
2016,08,19,09,45,26.30
2016,08,19,09,46,26.30
2016,08,19,09,47,26.30
2016,08,19,09,48,26.30
2016,08,19,09,49,26.30
2016,08,19,09,50,26.30
2016,08,19,09,51,26.40
2016,08,19,09,52,26.40
2016,08,19,09,53,26.40
2016,08,19,09,54,26.50
2016,08,19,09,55,26.60
2016,08,19,09,56,26.60
2016,08,19,09,57,26.60
2016,08,19,09,58,26.60
2016,08,19,09,59,26.60
2016,08,19,10,00,26.60
2016,08,19,10,01,26.60
2016,08,19,10,02,26.60
2016,08,19,10,03,26.70
2016,08,19,10,04,26.70
2016,08,19,10,05,26.70
2016,08,19,10,06,26.60
2016,08,19,10,07,26.60
2016,08,19,10,08,26.60
2016,08,19,10,09,26.60
2016,08,19,10,10,26.60
2016,08,19,10,11,26.70
2016,08,19,10,12,26.70
2016,08,19,10,13,26.70
2016,08,19,10,14,26.70
2016,08,19,10,15,26.70
2016,08,19,10,16,26.60
2016,08,19,10,17,26.60
2016,08,19,10,18,26.60
2016,08,19,10,19,26.70
2016,08,19,10,20,26.80
2016,08,19,10,21,26.80
2016,08,19,10,22,26.90
2016,08,19,10,23,27.10
2016,08,19,10,24,27.10
2016,08,19,10,25,27.20
2016,08,19,10,26,27.30
2016,08,19,10,27,27.40
2016,08,19,10,28,27.50
2016,08,19,10,29,27.60
2016,08,19,10,30,27.60
2016,08,19,10,31,27.60
2016,08,19,10,32,27.60
2016,08,19,10,33,27.60
2016,08,19,10,34,27.60
2016,08,19,10,35,27.70
2016,08,19,10,36,27.70
2016,08,19,10,37,27.70
2016,08,19,10,38,27.80
2016,08,19,10,39,27.80
2016,08,19,10,40,27.90
2016,08,19,10,41,28.00
2016,08,19,10,42,28.10
2016,08,19,10,43,28.20
2016,08,19,10,44,28.20
2016,08,19,10,45,28.20
2016,08,19,10,46,28.20
2016,08,19,10,47,28.10
2016,08,19,10,48,28.10
2016,08,19,10,49,28.10
2016,08,19,10,50,28.00
2016,08,19,10,51,27.90
2016,08,19,10,52,27.80
2016,08,19,10,53,27.70
2016,08,19,10,54,27.70
2016,08,19,10,55,27.70
2016,08,19,10,56,27.70
2016,08,19,10,57,27.70
2016,08,19,10,58,27.70
2016,08,19,10,59,27.70
2016,08,19,11,00,27.70
2016,08,19,11,01,27.80
2016,08,19,11,02,27.80
2016,08,19,11,03,27.90
2016,08,19,11,04,27.90
2016,08,19,11,05,28.00
2016,08,19,11,06,28.00
2016,08,19,11,07,28.10
2016,08,19,11,08,28.20
2016,08,19,11,09,28.30
2016,08,19,11,10,28.30
2016,08,19,11,11,28.30
2016,08,19,11,12,28.30
2016,08,19,11,13,28.40
2016,08,19,11,14,28.40
2016,08,19,11,15,28.40
2016,08,19,11,16,28.50
2016,08,19,11,17,28.60
2016,08,19,11,18,28.70
2016,08,19,11,19,28.80
2016,08,19,11,20,28.80
2016,08,19,11,21,28.80
2016,08,19,11,22,28.70
2016,08,19,11,23,28.70
2016,08,19,11,24,28.70
2016,08,19,11,25,28.60
2016,08,19,11,26,28.60
2016,08,19,11,27,28.60
2016,08,19,11,28,28.50
2016,08,19,11,29,28.40
2016,08,19,11,30,28.60
2016,08,19,11,31,28.60
2016,08,19,11,32,28.60
2016,08,19,11,33,28.50
2016,08,19,11,34,28.60
2016,08,19,11,35,28.60
2016,08,19,11,36,28.60
2016,08,19,11,37,28.70
2016,08,19,11,38,28.70
2016,08,19,11,39,28.70
2016,08,19,11,40,28.70
2016,08,19,11,41,28.70
2016,08,19,11,42,28.70
2016,08,19,11,43,28.70
2016,08,19,11,44,28.70
2016,08,19,11,45,28.70
2016,08,19,11,46,28.70
2016,08,19,11,47,28.70
2016,08,19,11,48,28.80
2016,08,19,11,49,28.70
2016,08,19,11,50,28.70
2016,08,19,11,51,28.70
2016,08,19,11,52,28.70
2016,08,19,11,53,28.80
2016,08,19,11,54,28.80
2016,08,19,11,55,28.80
2016,08,19,11,56,28.80
2016,08,19,11,57,28.80
2016,08,19,11,58,28.90
2016,08,19,11,59,28.90
2016,08,19,12,00,28.90
2016,08,19,12,01,28.90
2016,08,19,12,02,28.90
2016,08,19,12,03,28.90
2016,08,19,12,04,28.90
2016,08,19,12,05,28.90
2016,08,19,12,06,29.10
2016,08,19,12,07,29.20
2016,08,19,12,08,29.10
2016,08,19,12,09,29.10
2016,08,19,12,10,29.10
2016,08,19,12,11,29.00
2016,08,19,12,12,28.90
2016,08,19,12,13,28.90
2016,08,19,12,14,29.10
2016,08,19,12,15,29.20
2016,08,19,12,16,29.20
2016,08,19,12,17,29.20
2016,08,19,12,18,29.10
2016,08,19,12,19,29.10
2016,08,19,12,20,29.00
2016,08,19,12,21,28.90
2016,08,19,12,22,28.90
2016,08,19,12,23,28.90
2016,08,19,12,24,29.00
2016,08,19,12,25,29.10
2016,08,19,12,26,29.10
2016,08,19,12,27,29.10
2016,08,19,12,28,29.20
2016,08,19,12,29,29.10
2016,08,19,12,30,29.10
2016,08,19,12,31,29.10
2016,08,19,12,32,29.10
2016,08,19,12,33,29.10
2016,08,19,12,34,29.20
2016,08,19,12,35,29.20
2016,08,19,12,36,29.10
2016,08,19,12,37,29.00
2016,08,19,12,38,28.90
2016,08,19,12,39,28.90
2016,08,19,12,40,28.90
2016,08,19,12,41,28.90
2016,08,19,12,42,28.90
2016,08,19,12,43,28.90
2016,08,19,12,44,28.90
2016,08,19,12,45,28.90
2016,08,19,12,46,28.90
2016,08,19,12,47,28.90
2016,08,19,12,48,29.00
2016,08,19,12,49,29.10
2016,08,19,12,50,29.10
2016,08,19,12,51,29.20
2016,08,19,12,52,29.30
2016,08,19,12,53,29.30
2016,08,19,12,54,29.40
2016,08,19,12,55,29.50
2016,08,19,12,56,29.70
2016,08,19,12,57,29.80
2016,08,19,12,58,29.90
2016,08,19,12,59,30.00
2016,08,19,13,00,30.10
2016,08,19,13,01,30.20
2016,08,19,13,02,30.20
2016,08,19,13,03,30.20
2016,08,19,13,04,30.20
2016,08,19,13,05,30.10
2016,08,19,13,06,30.00
2016,08,19,13,07,29.90
2016,08,19,13,08,29.80
2016,08,19,13,09,29.80
2016,08,19,13,10,29.80
2016,08,19,13,11,29.90
2016,08,19,13,12,30.00
2016,08,19,13,13,30.10
2016,08,19,13,14,30.10
2016,08,19,13,15,30.00
2016,08,19,13,16,29.80
2016,08,19,13,17,29.80
2016,08,19,13,18,29.80
2016,08,19,13,19,29.70
2016,08,19,13,20,29.80
2016,08,19,13,21,29.90
2016,08,19,13,22,29.90
2016,08,19,13,23,29.90
2016,08,19,13,24,30.00
2016,08,19,13,25,30.00
2016,08,19,13,26,29.90
2016,08,19,13,27,30.00
2016,08,19,13,28,30.10
2016,08,19,13,29,30.20
2016,08,19,13,30,30.30
2016,08,19,13,31,30.30
2016,08,19,13,32,30.30
2016,08,19,13,33,30.20
2016,08,19,13,34,30.20
2016,08,19,13,35,30.20
2016,08,19,13,36,30.10
2016,08,19,13,37,30.10
2016,08,19,13,38,30.20
2016,08,19,13,39,30.20
2016,08,19,13,40,30.30
2016,08,19,13,41,30.30
2016,08,19,13,42,30.50
2016,08,19,13,43,30.70
2016,08,19,13,44,30.80
2016,08,19,13,45,30.90
2016,08,19,13,46,30.90
2016,08,19,13,47,30.90
2016,08,19,13,48,31.00
2016,08,19,13,49,31.00
2016,08,19,13,50,31.00
2016,08,19,13,51,31.10
2016,08,19,13,52,31.00
2016,08,19,13,53,31.00
2016,08,19,13,54,30.90
2016,08,19,13,55,30.80
2016,08,19,13,56,30.80
2016,08,19,13,57,30.70
2016,08,19,13,58,30.80
2016,08,19,13,59,30.80
2016,08,19,14,00,30.80
2016,08,19,14,01,30.80
2016,08,19,14,02,30.90
2016,08,19,14,03,30.90
2016,08,19,14,04,31.00
2016,08,19,14,05,30.90
2016,08,19,14,06,30.90
2016,08,19,14,07,30.90
2016,08,19,14,08,30.90
2016,08,19,14,09,30.90
2016,08,19,14,10,31.00
2016,08,19,14,11,31.10
2016,08,19,14,12,31.20
2016,08,19,14,13,31.30
2016,08,19,14,14,31.40
2016,08,19,14,15,31.40
2016,08,19,14,16,31.40
2016,08,19,14,17,31.50
2016,08,19,14,18,31.60
2016,08,19,14,19,31.60
2016,08,19,14,20,31.60
2016,08,19,14,21,31.60
2016,08,19,14,22,31.60
2016,08,19,14,23,31.50
2016,08,19,14,24,31.40
2016,08,19,14,25,31.20
2016,08,19,14,26,31.10
2016,08,19,14,27,31.10
2016,08,19,14,28,31.00
2016,08,19,14,29,30.90
2016,08,19,14,30,30.80
2016,08,19,14,31,30.90
2016,08,19,14,32,30.90
2016,08,19,14,33,30.90
2016,08,19,14,34,31.00
2016,08,19,14,35,31.00
2016,08,19,14,36,31.10
2016,08,19,14,37,31.10
2016,08,19,14,38,31.20
2016,08,19,14,39,31.30
2016,08,19,14,40,31.40
2016,08,19,14,41,31.50
2016,08,19,14,42,31.60
2016,08,19,14,43,31.70
2016,08,19,14,44,31.80
2016,08,19,14,45,31.80
2016,08,19,14,46,31.80
2016,08,19,14,47,31.80
2016,08,19,14,48,31.90
2016,08,19,14,49,31.90
2016,08,19,14,50,31.90
2016,08,19,14,51,31.90
2016,08,19,14,52,32.10
2016,08,19,14,53,32.10
2016,08,19,14,54,32.10
2016,08,19,14,55,32.10
2016,08,19,14,56,32.10
2016,08,19,14,57,32.10
2016,08,19,14,58,32.10
2016,08,19,14,59,32.10
2016,08,19,15,00,32.10
2016,08,19,15,01,32.00
2016,08,19,15,02,31.90
2016,08,19,15,03,31.90
2016,08,19,15,04,32.00
2016,08,19,15,05,32.10
2016,08,19,15,06,32.20
2016,08,19,15,07,32.30
2016,08,19,15,08,32.30
2016,08,19,15,09,32.30
2016,08,19,15,10,32.40
2016,08,19,15,11,32.30
2016,08,19,15,12,32.30
2016,08,19,15,13,32.30
2016,08,19,15,14,32.30
2016,08,19,15,15,32.20
2016,08,19,15,16,32.20
2016,08,19,15,17,32.20
2016,08,19,15,18,32.10
2016,08,19,15,19,32.10
2016,08,19,15,20,32.20
2016,08,19,15,21,32.10
2016,08,19,15,22,32.00
2016,08,19,15,23,31.90
2016,08,19,15,24,31.80
2016,08,19,15,25,31.60
2016,08,19,15,26,31.50
2016,08,19,15,27,31.40
2016,08,19,15,28,31.30
2016,08,19,15,29,31.20
2016,08,19,15,30,31.10
2016,08,19,15,31,31.10
2016,08,19,15,32,30.70
2016,08,19,15,33,30.00
2016,08,19,15,34,29.40
2016,08,19,15,35,29.00
2016,08,19,15,36,28.70
2016,08,19,15,37,28.30
2016,08,19,15,38,28.10
2016,08,19,15,39,27.90
2016,08,19,15,40,27.80
2016,08,19,15,41,27.80
2016,08,19,15,42,27.90
2016,08,19,15,43,27.90
2016,08,19,15,44,28.00
2016,08,19,15,45,28.20
2016,08,19,15,46,28.30
2016,08,19,15,47,28.40
2016,08,19,15,48,28.60
2016,08,19,15,49,28.70
2016,08,19,15,50,28.90
2016,08,19,15,51,29.00
2016,08,19,15,52,29.20
2016,08,19,15,53,29.20
2016,08,19,15,54,29.20
2016,08,19,15,55,29.30
2016,08,19,15,56,29.30
2016,08,19,15,57,29.20
2016,08,19,15,58,29.10
2016,08,19,15,59,29.10
2016,08,19,16,00,29.10
2016,08,19,16,01,29.00
2016,08,19,16,02,28.90
2016,08,19,16,03,28.90
2016,08,19,16,04,28.90
2016,08,19,16,05,28.90
2016,08,19,16,06,28.90
2016,08,19,16,07,28.90
2016,08,19,16,08,28.90
2016,08,19,16,09,28.90
2016,08,19,16,10,28.90
2016,08,19,16,11,28.90
2016,08,19,16,12,29.00
2016,08,19,16,13,29.10
2016,08,19,16,14,29.20
2016,08,19,16,15,29.30
2016,08,19,16,16,29.40
2016,08,19,16,17,29.50
2016,08,19,16,18,29.50
2016,08,19,16,19,29.40
2016,08,19,16,20,29.30
2016,08,19,16,21,29.10
2016,08,19,16,22,29.00
2016,08,19,16,23,28.90
2016,08,19,16,24,28.90
2016,08,19,16,25,28.80
2016,08,19,16,26,28.70
2016,08,19,16,27,28.60
2016,08,19,16,28,28.40
2016,08,19,16,29,28.40
2016,08,19,16,30,28.30
2016,08,19,16,31,28.30
2016,08,19,16,32,28.20
2016,08,19,16,33,28.20
2016,08,19,16,34,28.10
2016,08,19,16,35,28.10
2016,08,19,16,36,28.00
2016,08,19,16,37,28.00
2016,08,19,16,38,28.00
2016,08,19,16,39,28.00
2016,08,19,16,40,28.00
2016,08,19,16,41,28.10
2016,08,19,16,42,28.10
2016,08,19,16,43,28.10
2016,08,19,16,44,28.20
2016,08,19,16,45,28.20
2016,08,19,16,46,28.30
2016,08,19,16,47,28.40
2016,08,19,16,48,28.50
2016,08,19,16,49,28.60
2016,08,19,16,50,28.70
2016,08,19,16,51,28.70
2016,08,19,16,52,28.80
2016,08,19,16,53,28.80
2016,08,19,16,54,28.90
2016,08,19,16,55,28.90
2016,08,19,16,56,28.90
2016,08,19,16,57,28.90
2016,08,19,16,58,28.90
2016,08,19,16,59,29.00
2016,08,19,17,00,29.10
2016,08,19,17,01,29.30
2016,08,19,17,02,29.50
2016,08,19,17,03,29.70
2016,08,19,17,04,29.80
2016,08,19,17,05,29.80
2016,08,19,17,06,29.80
2016,08,19,17,07,29.80
2016,08,19,17,08,29.80
2016,08,19,17,09,29.70
2016,08,19,17,10,29.70
2016,08,19,17,11,29.70
2016,08,19,17,12,29.70
2016,08,19,17,13,29.70
2016,08,19,17,14,29.80
2016,08,19,17,15,29.80
2016,08,19,17,16,29.90
2016,08,19,17,17,30.00
2016,08,19,17,18,30.10
2016,08,19,17,19,30.00